Time,TemperatureF,DewpointF,PressureIn,WindDirection,WindDirectionDegrees,WindSpeedMPH,WindSpeedGustMPH,Humidity,HourlyPrecipIn,Conditions,Clouds,dailyrainin,SolarRadiationWatts/m^2,SoftwareType,DateUTC
2013-04-09 00:02:00,7.0,2.0,-100.00,North,10,6.0,16.0,79,0.00,,,0.01,0.000000,,2013-04-09 06:02:00,
2013-04-09 00:12:00,7.0,2.0,-100.00,North,10,6.0,16.0,79,0.00,,,0.01,0.000000,,2013-04-09 06:12:00,
2013-04-09 00:22:00,7.0,2.0,-100.00,North,10,6.0,16.0,79,0.00,,,0.01,0.000000,,2013-04-09 06:22:00,
2013-04-09 00:32:00,7.0,2.0,-100.00,North,10,6.0,16.0,79,0.00,,,0.01,0.000000,,2013-04-09 06:32:00,
2013-04-09 01:02:00,7.0,2.0,-100.00,North,359,6.0,16.0,78,0.00,,,0.01,0.000000,,2013-04-09 07:02:00,
2013-04-09 01:13:00,7.0,2.0,-100.00,North,359,6.0,16.0,78,0.00,,,0.01,0.000000,,2013-04-09 07:13:00,
2013-04-09 01:22:00,7.0,2.0,-100.00,North,359,6.0,16.0,78,0.00,,,0.01,0.000000,,2013-04-09 07:22:00,
2013-04-09 01:32:00,7.0,2.0,-100.00,North,359,6.0,16.0,78,0.00,,,0.01,0.000000,,2013-04-09 07:32:00,
2013-04-09 02:03:00,6.0,1.0,-100.00,North,5,8.0,16.0,78,0.00,,,0.01,0.000000,,2013-04-09 08:03:00,
2013-04-09 02:12:00,6.0,1.0,-100.00,North,5,8.0,16.0,78,0.00,,,0.01,0.000000,,2013-04-09 08:12:00,
2013-04-09 02:22:00,6.0,1.0,-100.00,North,5,8.0,16.0,78,0.00,,,0.01,0.000000,,2013-04-09 08:22:00,
2013-04-09 02:32:00,6.0,1.0,-100.00,North,5,8.0,16.0,78,0.00,,,0.01,0.000000,,2013-04-09 08:32:00,
2013-04-09 03:02:00,4.0,-2.0,-100.00,NNW,347,7.0,16.0,77,0.00,,,0.01,0.000000,,2013-04-09 09:02:00,
2013-04-09 03:12:00,4.0,-2.0,-100.00,NNW,347,7.0,16.0,77,0.00,,,0.01,0.000000,,2013-04-09 09:12:00,
2013-04-09 03:22:00,4.0,-2.0,-100.00,NNW,347,7.0,16.0,77,0.00,,,0.01,0.000000,,2013-04-09 09:22:00,
2013-04-09 03:33:00,4.0,-2.0,-100.00,NNW,347,7.0,16.0,77,0.00,,,0.01,0.000000,,2013-04-09 09:33:00,
2013-04-09 04:03:00,3.0,-3.0,-100.00,North,352,5.0,14.0,76,0.00,,,0.00,0.000000,,2013-04-09 10:03:00,
2013-04-09 04:13:00,3.0,-3.0,-100.00,North,352,5.0,14.0,76,0.00,,,0.00,0.000000,,2013-04-09 10:13:00,
2013-04-09 04:23:00,3.0,-3.0,-100.00,North,352,5.0,14.0,76,0.00,,,0.00,0.000000,,2013-04-09 10:23:00,
2013-04-09 04:33:00,3.0,-3.0,-100.00,North,352,5.0,14.0,76,0.00,,,0.00,0.000000,,2013-04-09 10:33:00,
2013-04-09 05:02:00,2.0,-4.0,-100.00,NNW,339,7.0,13.0,75,0.00,,,0.00,0.000000,,2013-04-09 11:02:00,
2013-04-09 05:12:00,2.0,-4.0,-100.00,NNW,339,7.0,13.0,75,0.00,,,0.00,0.000000,,2013-04-09 11:12:00,
2013-04-09 05:22:00,2.0,-4.0,-100.00,NNW,339,7.0,13.0,75,0.00,,,0.00,0.000000,,2013-04-09 11:22:00,
2013-04-09 05:32:00,2.0,-4.0,-100.00,NNW,339,7.0,13.0,75,0.00,,,0.00,0.000000,,2013-04-09 11:32:00,
2013-04-09 06:02:00,1.0,-5.0,-100.00,North,360,6.0,18.0,74,0.00,,,0.00,0.000000,,2013-04-09 12:02:00,
2013-04-09 06:12:00,1.0,-5.0,-100.00,North,360,6.0,18.0,74,0.00,,,0.00,0.000000,,2013-04-09 12:12:00,
2013-04-09 06:22:00,1.0,-5.0,-100.00,North,360,6.0,18.0,74,0.00,,,0.00,0.000000,,2013-04-09 12:22:00,
2013-04-09 06:32:00,1.0,-5.0,-100.00,North,360,6.0,18.0,74,0.00,,,0.00,0.000000,,2013-04-09 12:32:00,
2013-04-09 07:02:00,1.0,-5.0,-100.00,NNW,347,6.0,17.0,74,0.00,,,0.00,1.000000,,2013-04-09 13:02:00,
2013-04-09 07:12:00,1.0,-5.0,-100.00,NNW,347,6.0,17.0,74,0.00,,,0.00,1.000000,,2013-04-09 13:12:00,
2013-04-09 07:23:00,1.0,-5.0,-100.00,NNW,347,6.0,17.0,74,0.00,,,0.00,1.000000,,2013-04-09 13:23:00,
2013-04-09 07:32:00,1.0,-5.0,-100.00,NNW,347,6.0,17.0,74,0.00,,,0.00,1.000000,,2013-04-09 13:32:00,
2013-04-09 08:03:00,3.0,-3.0,-100.00,North,2,6.0,18.0,74,0.00,,,0.00,38.000000,,2013-04-09 14:03:00,
2013-04-09 08:12:00,3.0,-3.0,-100.00,North,2,6.0,18.0,74,0.00,,,0.00,38.000000,,2013-04-09 14:12:00,
2013-04-09 08:22:00,3.0,-3.0,-100.00,North,2,6.0,18.0,74,0.00,,,0.00,38.000000,,2013-04-09 14:22:00,
2013-04-09 08:32:00,3.0,-3.0,-100.00,North,2,6.0,18.0,74,0.00,,,0.00,38.000000,,2013-04-09 14:32:00,
2013-04-09 09:02:00,5.0,-1.0,-100.00,NNE,12,6.0,18.0,74,0.00,,,0.00,91.000000,,2013-04-09 15:02:00,
2013-04-09 09:12:00,5.0,-1.0,-100.00,NNE,12,6.0,18.0,74,0.00,,,0.00,91.000000,,2013-04-09 15:12:00,
2013-04-09 09:22:00,5.0,-1.0,-100.00,NNE,12,6.0,18.0,74,0.00,,,0.00,91.000000,,2013-04-09 15:22:00,
2013-04-09 09:33:00,5.0,-1.0,-100.00,NNE,12,6.0,18.0,74,0.00,,,0.00,91.000000,,2013-04-09 15:33:00,
2013-04-09 10:03:00,5.0,-1.0,-100.00,NNE,13,6.0,16.0,74,0.00,,,0.00,117.000000,,2013-04-09 16:03:00,
2013-04-09 10:13:00,5.0,-1.0,-100.00,NNE,13,6.0,16.0,74,0.00,,,0.00,117.000000,,2013-04-09 16:13:00,
2013-04-09 10:23:00,5.0,-1.0,-100.00,NNE,13,6.0,16.0,74,0.00,,,0.00,117.000000,,2013-04-09 16:23:00,
2013-04-09 10:33:00,5.0,-1.0,-100.00,NNE,13,6.0,16.0,74,0.00,,,0.00,117.000000,,2013-04-09 16:33:00,
2013-04-09 11:02:00,5.0,-1.0,-100.00,North,358,6.0,17.0,76,0.00,,,0.00,80.000000,,2013-04-09 17:02:00,
2013-04-09 11:13:00,5.0,-1.0,-100.00,North,358,6.0,17.0,76,0.00,,,0.00,80.000000,,2013-04-09 17:13:00,
2013-04-09 11:23:00,5.0,-1.0,-100.00,North,358,6.0,17.0,76,0.00,,,0.00,80.000000,,2013-04-09 17:23:00,
2013-04-09 11:32:00,5.0,-1.0,-100.00,North,358,6.0,17.0,76,0.00,,,0.00,80.000000,,2013-04-09 17:32:00,
2013-04-09 11:54:00,6.0,0.0,-100.00,North,8,6.0,12.0,75,0.00,,,0.00,143.000000,,2013-04-09 17:54:00,
2013-04-09 12:02:00,6.0,0.0,-100.00,North,8,6.0,12.0,75,0.00,,,0.00,143.000000,,2013-04-09 18:02:00,
2013-04-09 12:13:00,6.0,0.0,-100.00,North,8,6.0,12.0,75,0.00,,,0.00,143.000000,,2013-04-09 18:13:00,
2013-04-09 12:22:00,6.0,0.0,-100.00,North,8,6.0,12.0,75,0.00,,,0.00,143.000000,,2013-04-09 18:22:00,
2013-04-09 12:33:00,6.0,0.0,-100.00,North,8,6.0,12.0,75,0.00,,,0.00,143.000000,,2013-04-09 18:33:00,
2013-04-09 13:22:00,10.0,3.0,-100.00,North,7,5.0,16.0,73,0.00,,,0.00,377.000000,,2013-04-09 19:22:00,
2013-04-09 13:32:00,10.0,3.0,-100.00,North,7,5.0,16.0,73,0.00,,,0.00,377.000000,,2013-04-09 19:32:00,
2013-04-09 14:02:00,8.0,1.0,-100.00,NNE,12,7.0,16.0,73,0.00,,,0.00,296.000000,,2013-04-09 20:02:00,
2013-04-09 14:12:00,8.0,1.0,-100.00,NNE,12,7.0,16.0,73,0.00,,,0.00,296.000000,,2013-04-09 20:12:00,
2013-04-09 14:22:00,8.0,1.0,-100.00,NNE,12,7.0,16.0,73,0.00,,,0.00,296.000000,,2013-04-09 20:22:00,
2013-04-09 14:33:00,8.0,1.0,-100.00,NNE,12,7.0,16.0,73,0.00,,,0.00,296.000000,,2013-04-09 20:33:00,
2013-04-09 15:02:00,10.0,3.0,-100.00,North,8,5.0,18.0,73,0.00,,,0.00,257.000000,,2013-04-09 21:02:00,
2013-04-09 15:13:00,10.0,3.0,-100.00,North,8,5.0,18.0,73,0.00,,,0.00,257.000000,,2013-04-09 21:13:00,
2013-04-09 15:22:00,10.0,3.0,-100.00,North,8,5.0,18.0,73,0.00,,,0.00,257.000000,,2013-04-09 21:22:00,
2013-04-09 15:33:00,10.0,3.0,-100.00,North,8,5.0,18.0,73,0.00,,,0.00,257.000000,,2013-04-09 21:33:00,
2013-04-09 16:03:00,7.0,0.0,-100.00,North,8,8.0,17.0,74,0.00,,,0.00,186.000000,,2013-04-09 22:03:00,
2013-04-09 16:13:00,7.0,0.0,-100.00,North,8,8.0,17.0,74,0.00,,,0.00,186.000000,,2013-04-09 22:13:00,
2013-04-09 16:23:00,7.0,0.0,-100.00,North,8,8.0,17.0,74,0.00,,,0.00,186.000000,,2013-04-09 22:23:00,
2013-04-09 16:33:00,7.0,0.0,-100.00,North,8,8.0,17.0,74,0.00,,,0.00,186.000000,,2013-04-09 22:33:00,
2013-04-09 17:03:00,6.0,0.0,-100.00,North,2,5.0,17.0,75,0.00,,,0.00,104.000000,,2013-04-09 23:03:00,
2013-04-09 17:12:00,6.0,0.0,-100.00,North,2,5.0,17.0,75,0.00,,,0.00,104.000000,,2013-04-09 23:12:00,
2013-04-09 17:22:00,6.0,0.0,-100.00,North,2,5.0,17.0,75,0.00,,,0.00,104.000000,,2013-04-09 23:22:00,
2013-04-09 17:32:00,6.0,0.0,-100.00,North,2,5.0,17.0,75,0.00,,,0.00,104.000000,,2013-04-09 23:32:00,
2013-04-09 18:03:00,7.0,1.0,-100.00,NNW,348,4.0,12.0,75,0.00,,,0.00,108.000000,,2013-04-10 00:03:00,
2013-04-09 18:12:00,7.0,1.0,-100.00,NNW,348,4.0,12.0,75,0.00,,,0.00,108.000000,,2013-04-10 00:12:00,
2013-04-09 18:23:00,7.0,1.0,-100.00,NNW,348,4.0,12.0,75,0.00,,,0.00,108.000000,,2013-04-10 00:23:00,
2013-04-09 18:32:00,7.0,1.0,-100.00,NNW,348,4.0,12.0,75,0.00,,,0.00,108.000000,,2013-04-10 00:32:00,
2013-04-09 19:02:00,5.0,-1.0,-100.00,NNW,341,5.0,12.0,76,0.00,,,0.00,51.000000,,2013-04-10 01:02:00,
2013-04-09 19:12:00,5.0,-1.0,-100.00,NNW,341,5.0,12.0,76,0.00,,,0.00,51.000000,,2013-04-10 01:12:00,
2013-04-09 19:23:00,5.0,-1.0,-100.00,NNW,341,5.0,12.0,76,0.00,,,0.00,51.000000,,2013-04-10 01:23:00,
2013-04-09 19:32:00,5.0,-1.0,-100.00,NNW,341,5.0,12.0,76,0.00,,,0.00,51.000000,,2013-04-10 01:32:00,
2013-04-09 20:02:00,3.0,-3.0,-100.00,North,349,4.0,11.0,76,0.00,,,0.00,14.000000,,2013-04-10 02:02:00,
2013-04-09 20:12:00,3.0,-3.0,-100.00,North,349,4.0,11.0,76,0.00,,,0.00,14.000000,,2013-04-10 02:12:00,
2013-04-09 20:22:00,3.0,-3.0,-100.00,North,349,4.0,11.0,76,0.00,,,0.00,14.000000,,2013-04-10 02:22:00,
2013-04-09 20:32:00,3.0,-3.0,-100.00,North,349,4.0,11.0,76,0.00,,,0.00,14.000000,,2013-04-10 02:32:00,
2013-04-09 21:03:00,3.0,-3.0,-100.00,NNW,345,3.0,9.0,77,0.00,,,0.00,1.000000,,2013-04-10 03:03:00,
2013-04-09 21:12:00,3.0,-3.0,-100.00,NNW,345,3.0,9.0,77,0.00,,,0.00,1.000000,,2013-04-10 03:12:00,
2013-04-09 21:22:00,3.0,-3.0,-100.00,NNW,345,3.0,9.0,77,0.00,,,0.00,1.000000,,2013-04-10 03:22:00,
2013-04-09 21:33:00,3.0,-3.0,-100.00,NNW,345,3.0,9.0,77,0.00,,,0.00,1.000000,,2013-04-10 03:33:00,
2013-04-09 22:03:00,3.0,-3.0,-100.00,North,354,4.0,9.0,77,0.00,,,0.00,0.000000,,2013-04-10 04:03:00,
2013-04-09 22:13:00,3.0,-3.0,-100.00,North,354,4.0,9.0,77,0.00,,,0.00,0.000000,,2013-04-10 04:13:00,
2013-04-09 22:23:00,3.0,-3.0,-100.00,North,354,4.0,9.0,77,0.00,,,0.00,0.000000,,2013-04-10 04:23:00,
2013-04-09 22:33:00,3.0,-3.0,-100.00,North,354,4.0,9.0,77,0.00,,,0.00,0.000000,,2013-04-10 04:33:00,
2013-04-09 23:02:00,3.0,-3.0,-100.00,North,351,4.0,9.0,77,0.00,,,0.00,0.000000,,2013-04-10 05:02:00,
2013-04-09 23:13:00,3.0,-3.0,-100.00,North,351,4.0,9.0,77,0.00,,,0.00,0.000000,,2013-04-10 05:13:00,
2013-04-09 23:23:00,3.0,-3.0,-100.00,North,351,4.0,9.0,77,0.00,,,0.00,0.000000,,2013-04-10 05:23:00,
2013-04-09 23:33:00,3.0,-3.0,-100.00,North,351,4.0,9.0,77,0.00,,,0.00,0.000000,,2013-04-10 05:33:00,